Year,Month,Day,Hour,Minute,Value (Times are PST for temperature in C)
2014,09,12,00,00,13.50
2014,09,12,00,01,13.40
2014,09,12,00,02,13.30
2014,09,12,00,03,13.30
2014,09,12,00,04,13.20
2014,09,12,00,05,13.20
2014,09,12,00,06,13.20
2014,09,12,00,07,13.20
2014,09,12,00,08,13.20
2014,09,12,00,09,13.20
2014,09,12,00,10,13.20
2014,09,12,00,11,13.20
2014,09,12,00,12,13.20
2014,09,12,00,13,13.20
2014,09,12,00,14,13.20
2014,09,12,00,15,13.20
2014,09,12,00,16,13.10
2014,09,12,00,17,13.10
2014,09,12,00,18,13.00
2014,09,12,00,19,13.00
2014,09,12,00,20,13.00
2014,09,12,00,21,12.90
2014,09,12,00,22,12.90
2014,09,12,00,23,12.80
2014,09,12,00,24,12.80
2014,09,12,00,25,12.70
2014,09,12,00,26,12.70
2014,09,12,00,27,12.70
2014,09,12,00,28,12.60
2014,09,12,00,29,12.60
2014,09,12,00,30,12.50
2014,09,12,00,31,12.40
2014,09,12,00,32,12.40
2014,09,12,00,33,12.30
2014,09,12,00,34,12.30
2014,09,12,00,35,12.20
2014,09,12,00,36,12.20
2014,09,12,00,37,12.20
2014,09,12,00,38,12.10
2014,09,12,00,39,12.10
2014,09,12,00,40,12.00
2014,09,12,00,41,11.90
2014,09,12,00,42,11.90
2014,09,12,00,43,11.90
2014,09,12,00,44,11.80
2014,09,12,00,45,11.80
2014,09,12,00,46,11.80
2014,09,12,00,47,11.80
2014,09,12,00,48,11.80
2014,09,12,00,49,11.70
2014,09,12,00,50,11.70
2014,09,12,00,51,11.70
2014,09,12,00,52,11.70
2014,09,12,00,53,11.60
2014,09,12,00,54,11.60
2014,09,12,00,55,11.60
2014,09,12,00,56,11.50
2014,09,12,00,57,11.50
2014,09,12,00,58,11.50
2014,09,12,00,59,11.40
2014,09,12,01,00,11.40
2014,09,12,01,01,11.40
2014,09,12,01,02,11.40
2014,09,12,01,03,11.40
2014,09,12,01,04,11.40
2014,09,12,01,05,11.40
2014,09,12,01,06,11.40
2014,09,12,01,07,11.50
2014,09,12,01,08,11.50
2014,09,12,01,09,11.50
2014,09,12,01,10,11.60
2014,09,12,01,11,11.60
2014,09,12,01,12,11.70
2014,09,12,01,13,11.70
2014,09,12,01,14,11.70
2014,09,12,01,15,11.80
2014,09,12,01,16,11.80
2014,09,12,01,17,11.80
2014,09,12,01,18,11.90
2014,09,12,01,19,11.90
2014,09,12,01,20,11.90
2014,09,12,01,21,11.90
2014,09,12,01,22,11.90
2014,09,12,01,23,11.90
2014,09,12,01,24,11.90
2014,09,12,01,25,11.90
2014,09,12,01,26,11.90
2014,09,12,01,27,11.90
2014,09,12,01,28,11.90
2014,09,12,01,29,11.90
2014,09,12,01,30,11.80
2014,09,12,01,31,11.80
2014,09,12,01,32,11.80
2014,09,12,01,33,11.80
2014,09,12,01,34,11.80
2014,09,12,01,35,11.80
2014,09,12,01,36,11.80
2014,09,12,01,37,11.80
2014,09,12,01,38,11.70
2014,09,12,01,39,11.70
2014,09,12,01,40,11.70
2014,09,12,01,41,11.70
2014,09,12,01,42,11.60
2014,09,12,01,43,11.60
2014,09,12,01,44,11.50
2014,09,12,01,45,11.40
2014,09,12,01,46,11.40
2014,09,12,01,47,11.30
2014,09,12,01,48,11.20
2014,09,12,01,49,11.20
2014,09,12,01,50,11.10
2014,09,12,01,51,11.10
2014,09,12,01,52,11.00
2014,09,12,01,53,10.90
2014,09,12,01,54,10.90
2014,09,12,01,55,10.80
2014,09,12,01,56,10.80
2014,09,12,01,57,10.70
2014,09,12,01,58,10.70
2014,09,12,01,59,10.60
2014,09,12,02,00,10.60
2014,09,12,02,01,10.50
2014,09,12,02,02,10.40
2014,09,12,02,03,10.40
2014,09,12,02,04,10.30
2014,09,12,02,05,10.30
2014,09,12,02,06,10.20
2014,09,12,02,07,10.10
2014,09,12,02,08,10.10
2014,09,12,02,09,10.00
2014,09,12,02,10,10.00
2014,09,12,02,11,9.90
2014,09,12,02,12,9.90
2014,09,12,02,13,9.80
2014,09,12,02,14,9.80
2014,09,12,02,15,9.80
2014,09,12,02,16,9.70
2014,09,12,02,17,9.70
2014,09,12,02,18,9.70
2014,09,12,02,19,9.70
2014,09,12,02,20,9.70
2014,09,12,02,21,9.70
2014,09,12,02,22,9.60
2014,09,12,02,23,9.60
2014,09,12,02,24,9.60
2014,09,12,02,25,9.60
2014,09,12,02,26,9.60
2014,09,12,02,27,9.60
2014,09,12,02,28,9.60
2014,09,12,02,29,9.60
2014,09,12,02,30,9.60
2014,09,12,02,31,9.60
2014,09,12,02,32,9.50
2014,09,12,02,33,9.50
2014,09,12,02,34,9.50
2014,09,12,02,35,9.50
2014,09,12,02,36,9.50
2014,09,12,02,37,9.40
2014,09,12,02,38,9.40
2014,09,12,02,39,9.40
2014,09,12,02,40,9.40
2014,09,12,02,41,9.40
2014,09,12,02,42,9.40
2014,09,12,02,43,9.40
2014,09,12,02,44,9.40
2014,09,12,02,45,9.40
2014,09,12,02,46,9.40
2014,09,12,02,47,9.40
2014,09,12,02,48,9.40
2014,09,12,02,49,9.40
2014,09,12,02,50,9.40
2014,09,12,02,51,9.40
2014,09,12,02,52,9.40
2014,09,12,02,53,9.40
2014,09,12,02,54,9.40
2014,09,12,02,55,9.40
2014,09,12,02,56,9.40
2014,09,12,02,57,9.40
2014,09,12,02,58,9.40
2014,09,12,02,59,9.40
2014,09,12,03,00,9.40
2014,09,12,03,01,9.40
2014,09,12,03,02,9.40
2014,09,12,03,03,9.40
2014,09,12,03,04,9.40
2014,09,12,03,05,9.40
2014,09,12,03,06,9.50
2014,09,12,03,07,9.50
2014,09,12,03,08,9.50
2014,09,12,03,09,9.50
2014,09,12,03,10,9.60
2014,09,12,03,11,9.60
2014,09,12,03,12,9.60
2014,09,12,03,13,9.60
2014,09,12,03,14,9.60
2014,09,12,03,15,9.70
2014,09,12,03,16,9.70
2014,09,12,03,17,9.70
2014,09,12,03,18,9.70
2014,09,12,03,19,9.70
2014,09,12,03,20,9.80
2014,09,12,03,21,9.80
2014,09,12,03,22,9.80
2014,09,12,03,23,9.80
2014,09,12,03,24,9.90
2014,09,12,03,25,9.90
2014,09,12,03,26,9.90
2014,09,12,03,27,10.00
2014,09,12,03,28,10.00
2014,09,12,03,29,10.00
2014,09,12,03,30,10.10
2014,09,12,03,31,10.10
2014,09,12,03,32,10.10
2014,09,12,03,33,10.10
2014,09,12,03,34,10.10
2014,09,12,03,35,10.10
2014,09,12,03,36,10.10
2014,09,12,03,37,10.10
2014,09,12,03,38,10.10
2014,09,12,03,39,10.10
2014,09,12,03,40,10.10
2014,09,12,03,41,10.00
2014,09,12,03,42,10.00
2014,09,12,03,43,10.00
2014,09,12,03,44,9.90
2014,09,12,03,45,9.90
2014,09,12,03,46,9.90
2014,09,12,03,47,9.90
2014,09,12,03,48,9.90
2014,09,12,03,49,9.90
2014,09,12,03,50,9.90
2014,09,12,03,51,10.00
2014,09,12,03,52,10.00
2014,09,12,03,53,10.10
2014,09,12,03,54,10.10
2014,09,12,03,55,10.10
2014,09,12,03,56,10.10
2014,09,12,03,57,10.00
2014,09,12,03,58,9.90
2014,09,12,03,59,9.80
2014,09,12,04,00,9.70
2014,09,12,04,01,9.60
2014,09,12,04,02,9.60
2014,09,12,04,03,9.50
2014,09,12,04,04,9.40
2014,09,12,04,05,9.30
2014,09,12,04,06,9.20
2014,09,12,04,07,9.20
2014,09,12,04,08,9.10
2014,09,12,04,09,9.00
2014,09,12,04,10,8.90
2014,09,12,04,11,8.90
2014,09,12,04,12,8.80
2014,09,12,04,13,8.80
2014,09,12,04,14,8.70
2014,09,12,04,15,8.70
2014,09,12,04,16,8.70
2014,09,12,04,17,8.70
2014,09,12,04,18,8.70
2014,09,12,04,19,8.60
2014,09,12,04,20,8.60
2014,09,12,04,21,8.60
2014,09,12,04,22,8.60
2014,09,12,04,23,8.60
2014,09,12,04,24,8.60
2014,09,12,04,25,8.60
2014,09,12,04,26,8.60
2014,09,12,04,27,8.60
2014,09,12,04,28,8.60
2014,09,12,04,29,8.70
2014,09,12,04,30,8.70
2014,09,12,04,31,8.70
2014,09,12,04,32,8.80
2014,09,12,04,33,8.80
2014,09,12,04,34,8.80
2014,09,12,04,35,8.80
2014,09,12,04,36,8.80
2014,09,12,04,37,8.80
2014,09,12,04,38,8.80
2014,09,12,04,39,8.80
2014,09,12,04,40,8.80
2014,09,12,04,41,8.80
2014,09,12,04,42,8.80
2014,09,12,04,43,8.80
2014,09,12,04,44,8.80
2014,09,12,04,45,8.70
2014,09,12,04,46,8.70
2014,09,12,04,47,8.70
2014,09,12,04,48,8.70
2014,09,12,04,49,8.60
2014,09,12,04,50,8.60
2014,09,12,04,51,8.50
2014,09,12,04,52,8.50
2014,09,12,04,53,8.40
2014,09,12,04,54,8.40
2014,09,12,04,55,8.30
2014,09,12,04,56,8.30
2014,09,12,04,57,8.20
2014,09,12,04,58,8.20
2014,09,12,04,59,8.10
2014,09,12,05,00,8.10
2014,09,12,05,01,8.00
2014,09,12,05,02,8.00
2014,09,12,05,03,7.90
2014,09,12,05,04,7.90
2014,09,12,05,05,7.90
2014,09,12,05,06,7.90
2014,09,12,05,07,7.80
2014,09,12,05,08,7.80
2014,09,12,05,09,7.80
2014,09,12,05,10,7.70
2014,09,12,05,11,7.70
2014,09,12,05,12,7.70
2014,09,12,05,13,7.70
2014,09,12,05,14,7.60
2014,09,12,05,15,7.60
2014,09,12,05,16,7.60
2014,09,12,05,17,7.60
2014,09,12,05,18,7.60
2014,09,12,05,19,7.60
2014,09,12,05,20,7.60
2014,09,12,05,21,7.60
2014,09,12,05,22,7.50
2014,09,12,05,23,7.50
2014,09,12,05,24,7.60
2014,09,12,05,25,7.60
2014,09,12,05,26,7.60
2014,09,12,05,27,7.60
2014,09,12,05,28,7.60
2014,09,12,05,29,7.50
2014,09,12,05,30,7.50
2014,09,12,05,31,7.50
2014,09,12,05,32,7.50
2014,09,12,05,33,7.50
2014,09,12,05,34,7.60
2014,09,12,05,35,7.60
2014,09,12,05,36,7.60
2014,09,12,05,37,7.70
2014,09,12,05,38,7.70
2014,09,12,05,39,7.80
2014,09,12,05,40,7.80
2014,09,12,05,41,7.90
2014,09,12,05,42,7.90
2014,09,12,05,43,7.90
2014,09,12,05,44,8.00
2014,09,12,05,45,8.00
2014,09,12,05,46,8.00
2014,09,12,05,47,8.10
2014,09,12,05,48,8.10
2014,09,12,05,49,8.10
2014,09,12,05,50,8.10
2014,09,12,05,51,8.10
2014,09,12,05,52,8.10
2014,09,12,05,53,8.10
2014,09,12,05,54,8.10
2014,09,12,05,55,8.20
2014,09,12,05,56,8.20
2014,09,12,05,57,8.20
2014,09,12,05,58,8.20
2014,09,12,05,59,8.20
2014,09,12,06,00,8.20
2014,09,12,06,01,8.20
2014,09,12,06,02,8.20
2014,09,12,06,03,8.10
2014,09,12,06,04,8.10
2014,09,12,06,05,8.10
2014,09,12,06,06,8.10
2014,09,12,06,07,8.10
2014,09,12,06,08,8.10
2014,09,12,06,09,8.00
2014,09,12,06,10,8.00
2014,09,12,06,11,8.00
2014,09,12,06,12,7.90
2014,09,12,06,13,7.90
2014,09,12,06,14,7.90
2014,09,12,06,15,7.90
2014,09,12,06,16,7.90
2014,09,12,06,17,7.90
2014,09,12,06,18,7.90
2014,09,12,06,19,7.90
2014,09,12,06,20,7.90
2014,09,12,06,21,7.80
2014,09,12,06,22,7.80
2014,09,12,06,23,7.80
2014,09,12,06,24,7.80
2014,09,12,06,25,7.80
2014,09,12,06,26,7.80
2014,09,12,06,27,7.70
2014,09,12,06,28,7.70
2014,09,12,06,29,7.70
2014,09,12,06,30,7.70
2014,09,12,06,31,7.70
2014,09,12,06,32,7.80
2014,09,12,06,33,7.80
2014,09,12,06,34,7.90
2014,09,12,06,35,8.00
2014,09,12,06,36,8.10
2014,09,12,06,37,8.20
2014,09,12,06,38,8.40
2014,09,12,06,39,8.50
2014,09,12,06,40,8.70
2014,09,12,06,41,9.00
2014,09,12,06,42,9.20
2014,09,12,06,43,9.50
2014,09,12,06,44,9.70
2014,09,12,06,45,9.90
2014,09,12,06,46,10.00
2014,09,12,06,47,10.20
2014,09,12,06,48,10.40
2014,09,12,06,49,10.60
2014,09,12,06,50,10.70
2014,09,12,06,51,10.90
2014,09,12,06,52,11.00
2014,09,12,06,53,11.10
2014,09,12,06,54,11.30
2014,09,12,06,55,11.40
2014,09,12,06,56,11.50
2014,09,12,06,57,11.50
2014,09,12,06,58,11.50
2014,09,12,06,59,11.60
2014,09,12,07,00,11.60
2014,09,12,07,01,11.60
2014,09,12,07,02,11.60
2014,09,12,07,03,11.60
2014,09,12,07,04,11.70
2014,09,12,07,05,11.70
2014,09,12,07,06,11.80
2014,09,12,07,07,11.90
2014,09,12,07,08,12.00
2014,09,12,07,09,12.00
2014,09,12,07,10,12.10
2014,09,12,07,11,12.10
2014,09,12,07,12,12.20
2014,09,12,07,13,12.20
2014,09,12,07,14,12.30
2014,09,12,07,15,12.30
2014,09,12,07,16,12.30
2014,09,12,07,17,12.30
2014,09,12,07,18,12.30
2014,09,12,07,19,12.30
2014,09,12,07,20,12.40
2014,09,12,07,21,12.40
2014,09,12,07,22,12.40
2014,09,12,07,23,12.40
2014,09,12,07,24,12.40
2014,09,12,07,25,12.40
2014,09,12,07,26,12.40
2014,09,12,07,27,12.40
2014,09,12,07,28,12.40
2014,09,12,07,29,12.40
2014,09,12,07,30,12.40
2014,09,12,07,31,12.30
2014,09,12,07,32,12.30
2014,09,12,07,33,12.30
2014,09,12,07,34,12.30
2014,09,12,07,35,12.30
2014,09,12,07,36,12.30
2014,09,12,07,37,12.30
2014,09,12,07,38,12.40
2014,09,12,07,39,12.40
2014,09,12,07,40,12.40
2014,09,12,07,41,12.40
2014,09,12,07,42,12.40
2014,09,12,07,43,12.40
2014,09,12,07,44,12.40
2014,09,12,07,45,12.40
2014,09,12,07,46,12.40
2014,09,12,07,47,12.50
2014,09,12,07,48,12.50
2014,09,12,07,49,12.50
2014,09,12,07,50,12.50
2014,09,12,07,51,12.60
2014,09,12,07,52,12.60
2014,09,12,07,53,12.60
2014,09,12,07,54,12.60
2014,09,12,07,55,12.60
2014,09,12,07,56,12.60
2014,09,12,07,57,12.70
2014,09,12,07,58,12.70
2014,09,12,07,59,12.70
2014,09,12,08,00,12.70
2014,09,12,08,01,12.70
2014,09,12,08,02,12.70
2014,09,12,08,03,12.70
2014,09,12,08,04,12.70
2014,09,12,08,05,12.70
2014,09,12,08,06,12.80
2014,09,12,08,07,12.70
2014,09,12,08,08,12.80
2014,09,12,08,09,12.70
2014,09,12,08,10,12.80
2014,09,12,08,11,12.80
2014,09,12,08,12,12.80
2014,09,12,08,13,12.80
2014,09,12,08,14,12.80
2014,09,12,08,15,12.80
2014,09,12,08,16,12.80
2014,09,12,08,17,12.80
2014,09,12,08,18,12.80
2014,09,12,08,19,12.80
2014,09,12,08,20,12.90
2014,09,12,08,21,12.90
2014,09,12,08,22,13.00
2014,09,12,08,23,13.10
2014,09,12,08,24,13.10
2014,09,12,08,25,13.10
2014,09,12,08,26,13.20
2014,09,12,08,27,13.20
2014,09,12,08,28,13.30
2014,09,12,08,29,13.30
2014,09,12,08,30,13.40
2014,09,12,08,31,13.40
2014,09,12,08,32,13.40
2014,09,12,08,33,13.50
2014,09,12,08,34,13.50
2014,09,12,08,35,13.60
2014,09,12,08,36,13.60
2014,09,12,08,37,13.60
2014,09,12,08,38,13.60
2014,09,12,08,39,13.70
2014,09,12,08,40,13.70
2014,09,12,08,41,13.80
2014,09,12,08,42,13.80
2014,09,12,08,43,13.90
2014,09,12,08,44,13.90
2014,09,12,08,45,14.00
2014,09,12,08,46,14.10
2014,09,12,08,47,14.10
2014,09,12,08,48,14.20
2014,09,12,08,49,14.20
2014,09,12,08,50,14.30
2014,09,12,08,51,14.30
2014,09,12,08,52,14.40
2014,09,12,08,53,14.40
2014,09,12,08,54,14.50
2014,09,12,08,55,14.50
2014,09,12,08,56,14.60
2014,09,12,08,57,14.60
2014,09,12,08,58,14.70
2014,09,12,08,59,14.70
2014,09,12,09,00,14.70
2014,09,12,09,01,14.80
2014,09,12,09,02,14.80
2014,09,12,09,03,14.90
2014,09,12,09,04,15.00
2014,09,12,09,05,15.00
2014,09,12,09,06,15.00
2014,09,12,09,07,15.00
2014,09,12,09,08,15.00
2014,09,12,09,09,15.00
2014,09,12,09,10,15.00
2014,09,12,09,11,15.00
2014,09,12,09,12,15.00
2014,09,12,09,13,15.10
2014,09,12,09,14,15.20
2014,09,12,09,15,15.20
2014,09,12,09,16,15.30
2014,09,12,09,17,15.30
2014,09,12,09,18,15.30
2014,09,12,09,19,15.40
2014,09,12,09,20,15.40
2014,09,12,09,21,15.40
2014,09,12,09,22,15.40
2014,09,12,09,23,15.40
2014,09,12,09,24,15.40
2014,09,12,09,25,15.40
2014,09,12,09,26,15.50
2014,09,12,09,27,15.50
2014,09,12,09,28,15.50
2014,09,12,09,29,15.60
2014,09,12,09,30,15.60
2014,09,12,09,31,15.70
2014,09,12,09,32,15.70
2014,09,12,09,33,15.70
2014,09,12,09,34,15.80
2014,09,12,09,35,15.80
2014,09,12,09,36,15.90
2014,09,12,09,37,15.90
2014,09,12,09,38,16.00
2014,09,12,09,39,16.00
2014,09,12,09,40,16.10
2014,09,12,09,41,16.10
2014,09,12,09,42,16.20
2014,09,12,09,43,16.20
2014,09,12,09,44,16.30
2014,09,12,09,45,16.30
2014,09,12,09,46,16.40
2014,09,12,09,47,16.40
2014,09,12,09,48,16.40
2014,09,12,09,49,16.40
2014,09,12,09,50,16.50
2014,09,12,09,51,16.50
2014,09,12,09,52,16.60
2014,09,12,09,53,16.60
2014,09,12,09,54,16.60
2014,09,12,09,55,16.60
2014,09,12,09,56,16.70
2014,09,12,09,57,16.70
2014,09,12,09,58,16.80
2014,09,12,09,59,16.80
2014,09,12,10,00,16.80
2014,09,12,10,01,16.90
2014,09,12,10,02,16.90
2014,09,12,10,03,16.90
2014,09,12,10,04,16.90
2014,09,12,10,05,16.90
2014,09,12,10,06,16.90
2014,09,12,10,07,16.90
2014,09,12,10,08,16.80
2014,09,12,10,09,16.80
2014,09,12,10,10,16.80
2014,09,12,10,11,16.70
2014,09,12,10,12,16.70
2014,09,12,10,13,16.70
2014,09,12,10,14,16.70
2014,09,12,10,15,16.70
2014,09,12,10,16,16.70
2014,09,12,10,17,16.80
2014,09,12,10,18,16.80
2014,09,12,10,19,16.80
2014,09,12,10,20,16.90
2014,09,12,10,21,17.00
2014,09,12,10,22,17.10
2014,09,12,10,23,17.10
2014,09,12,10,24,17.20
2014,09,12,10,25,17.20
2014,09,12,10,26,17.30
2014,09,12,10,27,17.40
2014,09,12,10,28,17.40
2014,09,12,10,29,17.50
2014,09,12,10,30,17.50
2014,09,12,10,31,17.60
2014,09,12,10,32,17.60
2014,09,12,10,33,17.70
2014,09,12,10,34,17.70
2014,09,12,10,35,17.80
2014,09,12,10,36,17.80
2014,09,12,10,37,17.80
2014,09,12,10,38,17.90
2014,09,12,10,39,17.90
2014,09,12,10,40,17.90
2014,09,12,10,41,17.90
2014,09,12,10,42,18.00
2014,09,12,10,43,18.00
2014,09,12,10,44,18.00
2014,09,12,10,45,18.00
2014,09,12,10,46,18.10
2014,09,12,10,47,18.10
2014,09,12,10,48,18.10
2014,09,12,10,49,18.10
2014,09,12,10,50,18.10
2014,09,12,10,51,18.10
2014,09,12,10,52,18.10
2014,09,12,10,53,18.10
2014,09,12,10,54,18.10
2014,09,12,10,55,18.20
2014,09,12,10,56,18.20
2014,09,12,10,57,18.20
2014,09,12,10,58,18.20
2014,09,12,10,59,18.30
2014,09,12,11,00,18.30
2014,09,12,11,01,18.40
2014,09,12,11,02,18.40
2014,09,12,11,03,18.40
2014,09,12,11,04,18.50
2014,09,12,11,05,18.60
2014,09,12,11,06,18.60
2014,09,12,11,07,18.70
2014,09,12,11,08,18.80
2014,09,12,11,09,18.80
2014,09,12,11,10,18.90
2014,09,12,11,11,18.90
2014,09,12,11,12,18.90
2014,09,12,11,13,18.90
2014,09,12,11,14,19.00
2014,09,12,11,15,19.00
2014,09,12,11,16,19.00
2014,09,12,11,17,18.90
2014,09,12,11,18,18.90
2014,09,12,11,19,18.90
2014,09,12,11,20,18.90
2014,09,12,11,21,18.80
2014,09,12,11,22,18.80
2014,09,12,11,23,18.70
2014,09,12,11,24,18.70
2014,09,12,11,25,18.70
2014,09,12,11,26,18.70
2014,09,12,11,27,18.80
2014,09,12,11,28,18.80
2014,09,12,11,29,18.90
2014,09,12,11,30,18.90
2014,09,12,11,31,19.00
2014,09,12,11,32,19.00
2014,09,12,11,33,19.00
2014,09,12,11,34,19.00
2014,09,12,11,35,19.00
2014,09,12,11,36,18.90
2014,09,12,11,37,19.00
2014,09,12,11,38,19.00
2014,09,12,11,39,19.00
2014,09,12,11,40,18.90
2014,09,12,11,41,18.90
2014,09,12,11,42,18.90
2014,09,12,11,43,18.80
2014,09,12,11,44,18.80
2014,09,12,11,45,18.80
2014,09,12,11,46,18.80
2014,09,12,11,47,18.80
2014,09,12,11,48,18.80
2014,09,12,11,49,18.80
2014,09,12,11,50,18.80
2014,09,12,11,51,18.80
2014,09,12,11,52,18.80
2014,09,12,11,53,18.80
2014,09,12,11,54,18.80
2014,09,12,11,55,18.90
2014,09,12,11,56,18.90
2014,09,12,11,57,18.90
2014,09,12,11,58,18.90
2014,09,12,11,59,19.00
2014,09,12,12,00,19.00
2014,09,12,12,01,19.10
2014,09,12,12,02,19.10
2014,09,12,12,03,19.20
2014,09,12,12,04,19.20
2014,09,12,12,05,19.20
2014,09,12,12,06,19.30
2014,09,12,12,07,19.30
2014,09,12,12,08,19.30
2014,09,12,12,09,19.30
2014,09,12,12,10,19.30
2014,09,12,12,11,19.30
2014,09,12,12,12,19.30
2014,09,12,12,13,19.30
2014,09,12,12,14,19.30
2014,09,12,12,15,19.30
2014,09,12,12,16,19.40
2014,09,12,12,17,19.40
2014,09,12,12,18,19.50
2014,09,12,12,19,19.60
2014,09,12,12,20,19.60
2014,09,12,12,21,19.70
2014,09,12,12,22,19.70
2014,09,12,12,23,19.80
2014,09,12,12,24,19.80
2014,09,12,12,25,19.90
2014,09,12,12,26,20.00
2014,09,12,12,27,20.00
2014,09,12,12,28,20.10
2014,09,12,12,29,20.20
2014,09,12,12,30,20.20
2014,09,12,12,31,20.20
2014,09,12,12,32,20.20
2014,09,12,12,33,20.20
2014,09,12,12,34,20.30
2014,09,12,12,35,20.30
2014,09,12,12,36,20.30
2014,09,12,12,37,20.30
2014,09,12,12,38,20.30
2014,09,12,12,39,20.30
2014,09,12,12,40,20.30
2014,09,12,12,41,20.30
2014,09,12,12,42,20.30
2014,09,12,12,43,20.30
2014,09,12,12,44,20.30
2014,09,12,12,45,20.40
2014,09,12,12,46,20.40
2014,09,12,12,47,20.40
2014,09,12,12,48,20.50
2014,09,12,12,49,20.50
2014,09,12,12,50,20.50
2014,09,12,12,51,20.40
2014,09,12,12,52,20.30
2014,09,12,12,53,20.30
2014,09,12,12,54,20.20
2014,09,12,12,55,20.20
2014,09,12,12,56,20.20
2014,09,12,12,57,20.20
2014,09,12,12,58,20.20
2014,09,12,12,59,20.20
2014,09,12,13,00,20.30
2014,09,12,13,01,20.30
2014,09,12,13,02,20.30
2014,09,12,13,03,20.40
2014,09,12,13,04,20.40
2014,09,12,13,05,20.50
2014,09,12,13,06,20.60
2014,09,12,13,07,20.60
2014,09,12,13,08,20.70
2014,09,12,13,09,20.80
2014,09,12,13,10,20.80
2014,09,12,13,11,20.90
2014,09,12,13,12,20.90
2014,09,12,13,13,20.90
2014,09,12,13,14,20.90
2014,09,12,13,15,21.00
2014,09,12,13,16,21.00
2014,09,12,13,17,21.10
2014,09,12,13,18,21.10
2014,09,12,13,19,21.20
2014,09,12,13,20,21.20
2014,09,12,13,21,21.20
2014,09,12,13,22,21.20
2014,09,12,13,23,21.10
2014,09,12,13,24,21.10
2014,09,12,13,25,21.00
2014,09,12,13,26,21.00
2014,09,12,13,27,21.00
2014,09,12,13,28,21.00
2014,09,12,13,29,20.90
2014,09,12,13,30,20.90
2014,09,12,13,31,20.90
2014,09,12,13,32,20.90
2014,09,12,13,33,20.90
2014,09,12,13,34,20.90
2014,09,12,13,35,20.90
2014,09,12,13,36,21.00
2014,09,12,13,37,21.00
2014,09,12,13,38,21.00
2014,09,12,13,39,21.10
2014,09,12,13,40,21.10
2014,09,12,13,41,21.10
2014,09,12,13,42,21.10
2014,09,12,13,43,21.10
2014,09,12,13,44,21.10
2014,09,12,13,45,21.10
2014,09,12,13,46,21.10
2014,09,12,13,47,21.10
2014,09,12,13,48,21.20
2014,09,12,13,49,21.20
2014,09,12,13,50,21.20
2014,09,12,13,51,21.30
2014,09,12,13,52,21.30
2014,09,12,13,53,21.30
2014,09,12,13,54,21.40
2014,09,12,13,55,21.40
2014,09,12,13,56,21.40
2014,09,12,13,57,21.50
2014,09,12,13,58,21.50
2014,09,12,13,59,21.50
2014,09,12,14,00,21.50
2014,09,12,14,01,21.50
2014,09,12,14,02,21.50
2014,09,12,14,03,21.50
2014,09,12,14,04,21.60
2014,09,12,14,05,21.60
2014,09,12,14,06,21.60
2014,09,12,14,07,21.60
2014,09,12,14,08,21.60
2014,09,12,14,09,21.60
2014,09,12,14,10,21.50
2014,09,12,14,11,21.50
2014,09,12,14,12,21.50
2014,09,12,14,13,21.50
2014,09,12,14,14,21.50
2014,09,12,14,15,21.40
2014,09,12,14,16,21.40
2014,09,12,14,17,21.40
2014,09,12,14,18,21.40
2014,09,12,14,19,21.40
2014,09,12,14,20,21.40
2014,09,12,14,21,21.40
2014,09,12,14,22,21.40
2014,09,12,14,23,21.40
2014,09,12,14,24,21.50
2014,09,12,14,25,21.50
2014,09,12,14,26,21.50
2014,09,12,14,27,21.50
2014,09,12,14,28,21.40
2014,09,12,14,29,21.40
2014,09,12,14,30,21.40
2014,09,12,14,31,21.40
2014,09,12,14,32,21.50
2014,09,12,14,33,21.60
2014,09,12,14,34,21.60
2014,09,12,14,35,21.60
2014,09,12,14,36,21.60
2014,09,12,14,37,21.60
2014,09,12,14,38,21.50
2014,09,12,14,39,21.50
2014,09,12,14,40,21.40
2014,09,12,14,41,21.40
2014,09,12,14,42,21.40
2014,09,12,14,43,21.40
2014,09,12,14,44,21.40
2014,09,12,14,45,21.40
2014,09,12,14,46,21.40
2014,09,12,14,47,21.30
2014,09,12,14,48,21.30
2014,09,12,14,49,21.30
2014,09,12,14,50,21.30
2014,09,12,14,51,21.30
2014,09,12,14,52,21.30
2014,09,12,14,53,21.30
2014,09,12,14,54,21.30
2014,09,12,14,55,21.30
2014,09,12,14,56,21.30
2014,09,12,14,57,21.30
2014,09,12,14,58,21.50
2014,09,12,14,59,21.60
2014,09,12,15,00,21.70
2014,09,12,15,01,21.80
2014,09,12,15,02,21.80
2014,09,12,15,03,21.80
2014,09,12,15,04,21.80
2014,09,12,15,05,21.80
2014,09,12,15,06,21.80
2014,09,12,15,07,21.80
2014,09,12,15,08,21.80
2014,09,12,15,09,21.70
2014,09,12,15,10,21.60
2014,09,12,15,11,21.50
2014,09,12,15,12,21.50
2014,09,12,15,13,21.50
2014,09,12,15,14,21.50
2014,09,12,15,15,21.60
2014,09,12,15,16,21.60
2014,09,12,15,17,21.60
2014,09,12,15,18,21.60
2014,09,12,15,19,21.70
2014,09,12,15,20,21.80
2014,09,12,15,21,21.90
2014,09,12,15,22,21.90
2014,09,12,15,23,21.90
2014,09,12,15,24,21.90
2014,09,12,15,25,21.90
2014,09,12,15,26,21.90
2014,09,12,15,27,22.00
2014,09,12,15,28,22.10
2014,09,12,15,29,22.10
2014,09,12,15,30,22.10
2014,09,12,15,31,22.10
2014,09,12,15,32,22.20
2014,09,12,15,33,22.20
2014,09,12,15,34,22.20
2014,09,12,15,35,22.30
2014,09,12,15,36,22.20
2014,09,12,15,37,22.20
2014,09,12,15,38,22.20
2014,09,12,15,39,22.10
2014,09,12,15,40,22.10
2014,09,12,15,41,22.10
2014,09,12,15,42,22.10
2014,09,12,15,43,22.10
2014,09,12,15,44,22.10
2014,09,12,15,45,22.10
2014,09,12,15,46,22.10
2014,09,12,15,47,22.00
2014,09,12,15,48,21.90
2014,09,12,15,49,21.90
2014,09,12,15,50,21.80
2014,09,12,15,51,21.80
2014,09,12,15,52,21.80
2014,09,12,15,53,21.80
2014,09,12,15,54,21.80
2014,09,12,15,55,21.80
2014,09,12,15,56,21.80
2014,09,12,15,57,21.90
2014,09,12,15,58,21.90
2014,09,12,15,59,21.90
2014,09,12,16,00,21.90
2014,09,12,16,01,21.80
2014,09,12,16,02,21.80
2014,09,12,16,03,21.90
2014,09,12,16,04,21.90
2014,09,12,16,05,21.90
2014,09,12,16,06,21.90
2014,09,12,16,07,21.90
2014,09,12,16,08,22.00
2014,09,12,16,09,22.10
2014,09,12,16,10,22.10
2014,09,12,16,11,22.20
2014,09,12,16,12,22.20
2014,09,12,16,13,22.20
2014,09,12,16,14,22.30
2014,09,12,16,15,22.40
2014,09,12,16,16,22.40
2014,09,12,16,17,22.50
2014,09,12,16,18,22.50
2014,09,12,16,19,22.50
2014,09,12,16,20,22.50
2014,09,12,16,21,22.50
2014,09,12,16,22,22.60
2014,09,12,16,23,22.60
2014,09,12,16,24,22.60
2014,09,12,16,25,22.60
2014,09,12,16,26,22.60
2014,09,12,16,27,22.60
2014,09,12,16,28,22.60
2014,09,12,16,29,22.60
2014,09,12,16,30,22.60
2014,09,12,16,31,22.60
2014,09,12,16,32,22.60
2014,09,12,16,33,22.60
2014,09,12,16,34,22.60
2014,09,12,16,35,22.60
2014,09,12,16,36,22.60
2014,09,12,16,37,22.60
2014,09,12,16,38,22.60
2014,09,12,16,39,22.60
2014,09,12,16,40,22.50
2014,09,12,16,41,22.60
2014,09,12,16,42,22.60
2014,09,12,16,43,22.60
2014,09,12,16,44,22.60
2014,09,12,16,45,22.60
2014,09,12,16,46,22.60
2014,09,12,16,47,22.60
2014,09,12,16,48,22.60
2014,09,12,16,49,22.50
2014,09,12,16,50,22.50
2014,09,12,16,51,22.50
2014,09,12,16,52,22.50
2014,09,12,16,53,22.40
2014,09,12,16,54,22.50
2014,09,12,16,55,22.50
2014,09,12,16,56,22.50
2014,09,12,16,57,22.60
2014,09,12,16,58,22.60
2014,09,12,16,59,22.60
2014,09,12,17,00,22.70
2014,09,12,17,01,22.70
2014,09,12,17,02,22.80
2014,09,12,17,03,22.80
2014,09,12,17,04,22.90
2014,09,12,17,05,22.90
2014,09,12,17,06,22.90
2014,09,12,17,07,22.90
2014,09,12,17,08,22.90
2014,09,12,17,09,23.00
2014,09,12,17,10,23.00
2014,09,12,17,11,23.00
2014,09,12,17,12,23.10
2014,09,12,17,13,23.10
2014,09,12,17,14,23.10
2014,09,12,17,15,23.10
2014,09,12,17,16,23.00
2014,09,12,17,17,23.00
2014,09,12,17,18,22.90
2014,09,12,17,19,22.90
2014,09,12,17,20,22.90
2014,09,12,17,21,22.80
2014,09,12,17,22,22.80
2014,09,12,17,23,22.80
2014,09,12,17,24,22.70
2014,09,12,17,25,22.70
2014,09,12,17,26,22.60
2014,09,12,17,27,22.60
2014,09,12,17,28,22.50
2014,09,12,17,29,22.40
2014,09,12,17,30,22.40